Погода в Новоселье

Россия / Ярославская область     56°42′51″N   38°42′38″E
темп.,
°C
ветер,
м/с
пор.,
м/с
влажн.,
%
обл.,
%
осадки,
мм/ч
давл.,
гПа
погр.,
м
11 апреля, вс
вс1100:00+2ююз413765 0.0 1024262
03:00+1ююз311815 0.0 1025209
06:00+1юз39855 0.0 1026174
09:00+6зюз24815 0.0 1028248
12:00+10юз246916 0.0 1029834
15:00+12зюз246198 0.0 1029923
18:00+10ююв227455 0.0 103044
21:00+7ююв378070 0.0 1032108
12 апреля, пн
пн1200:00+5ююв25867 0.0 103383
03:00+4ююв22875 0.0 103428
06:00+3юв24885 0.0 103560
09:00+9юв47715 0.0 1035330
12:00+11вюв51064100 0.0 1034715
15:00+13вюв5963100 0.0 1032920
18:00+10вюв51169100 0.0 1031678
21:00+7юв51279100 0.0 1031435
13 апреля, вт
вт1300:00+6юв3990100 0.0 1029264
03:00+5вюв2797100 0.0 1028157
06:00+5юв2697100 0.0 1027129
09:00+11ю397398 0.0 1026322
12:00+15ю51055100 0.0 1025610
15:00+18ю584695 0.0 10241057
18:00+15ю3854100 0.0 1024238
21:00+11ю31070100 0.0 1024180
14 апреля, ср
ср1400:00+9ю3975100 0.0 1024148
03:00+8ю377475 0.0 1023100
06:00+8ююв377798 0.0 1023119
09:00+13ю495869 0.0 1022299
12:00+17ю5847100 0.0 1021726
15:00+19ю4742100 0.0 10201160
18:00+16ю2654100 0.0 1020124
21:00+12ю366459 0.0 102082
15 апреля, чт
чт1500:00+10ю376828 0.0 1019105
03:00+8ю2372100 0.0 101942
06:00+8юз1174100 0.0 101910
09:00+11с1166100 0.0 1018211
12:00+13с3263100 0.0 1018615
15:00+12с4466100 0.0 1019751
18:00+8ссв5777100 0.0 1020616
21:00+4ссв51288100 0.0 1022574